DW2616 Weather Reports


Display with metric or nautical units.
time (UTC)temp
F
wind
direction
speed
MPH
gust
MPH
rain 1hr
in
rain 24hr
in
rain mn
in
humidity
%
barometer
mb
20181218215506 50 132 2.0 5.0 0.00 0.00 0.00 45 1019.2
20181218215005 50 114 2.0 6.0 0.00 0.00 0.00 44 1019.2
20181218214506 50 107 2.0 6.0 0.00 0.00 0.00 44 1019.2
20181218214006 50 123 3.0 7.0 0.00 0.00 0.00 43 1019.2
20181218213506 50 116 4.0 7.0 0.00 0.00 0.00 43 1019.1
20181218213006 51 100 3.0 7.0 0.00 0.00 0.00 43 1019.1
20181218212505 51 100 3.0 8.0 0.00 0.00 0.00 43 1019.1
20181218212006 51 105 3.0 8.0 0.00 0.00 0.00 43 1019.1
20181218211506 51 102 3.0 7.0 0.00 0.00 0.00 42 1019.2
20181218211006 51 103 3.0 8.0 0.00 0.00 0.00 42 1019.2
20181218210506 51 115 3.0 8.0 0.00 0.00 0.00 40 1019.2
20181218210005 51 117 3.0 9.0 0.00 0.00 0.00 40 1019.3
20181218205505 51 113 3.0 9.0 0.00 0.00 0.00 39 1019.5
20181218205006 51 116 2.0 7.0 0.00 0.00 0.00 38 1019.5
20181218204506 51 110 1.0 6.0 0.00 0.00 0.00 38 1019.7
20181218204006 51 103 1.0 5.0 0.00 0.00 0.00 35 1019.7
20181218203505 51 109 2.0 5.0 0.00 0.00 0.00 35 1019.8
20181218203006 51 116 2.0 6.0 0.00 0.00 0.00 35 1019.9
20181218202506 51 108 2.0 6.0 0.00 0.00 0.00 36 1020.0
20181218202006 51 111 2.0 6.0 0.00 0.00 0.00 38 1020.0
20181218201506 51 114 2.0 6.0 0.00 0.00 0.00 40 1020.1
20181218201006 51 130 2.0 5.0 0.00 0.00 0.00 41 1020.1
20181218200505 52 206 1.0 5.0 0.00 0.00 0.00 42 1020.1
20181218200006 51 161 2.0 7.0 0.00 0.00 0.00 42 1020.1
20181218195506 51 147 2.0 7.0 0.00 0.00 0.00 43 1020.1
20181218195006 51 137 2.0 7.0 0.00 0.00 0.00 42 1020.1
20181218194505 50 108 2.0 7.0 0.00 0.00 0.00 42 1020.2
20181218194006 50 99 3.0 6.0 0.00 0.00 0.00 43 1020.4
20181218193505 50 108 2.0 6.0 0.00 0.00 0.00 45 1020.4
20181218193005 50 119 2.0 6.0 0.00 0.00 0.00 45 1020.6
20181218192506 50 105 2.0 5.0 0.00 0.00 0.00 47 1020.7
20181218192006 50 127 2.0 5.0 0.00 0.00 0.00 46 1020.8
20181218191505 50 165 1.0 5.0 0.00 0.00 0.00 48 1020.9
20181218191005 50 142 1.0 5.0 0.00 0.00 0.00 48 1021.2
20181218190506 50 114 1.0 3.0 0.00 0.00 0.00 50 1021.3
20181218190006 49 101 1.0 5.0 0.00 0.00 0.00 50 1021.2
20181218185506 49 95 2.0 6.0 0.00 0.00 0.00 50 1021.3
20181218185005 49 91 3.0 6.0 0.00 0.00 0.00 51 1021.3
20181218184506 49 94 2.0 7.0 0.00 0.00 0.00 51 1021.4
20181218184005 49 97 1.0 7.0 0.00 0.00 0.00 52 1021.4
20181218183506 48 114 1.0 5.0 0.00 0.00 0.00 53 1021.4
20181218183005 48 133 2.0 5.0 0.00 0.00 0.00 53 1021.5
20181218182506 48 141 2.0 5.0 0.00 0.00 0.00 53 1021.6
20181218182006 48 148 1.0 5.0 0.00 0.00 0.00 53 1021.7
20181218181506 48 173 1.0 4.0 0.00 0.00 0.00 54 1021.9
20181218181006 48 166 1.0 4.0 0.00 0.00 0.00 54 1022.0
20181218180505 48 113 1.0 3.0 0.00 0.00 0.00 56 1022.1
20181218180006 48 105 1.0 3.0 0.00 0.00 0.00 57 1022.1
20181218175507 47 106 1.0 4.0 0.00 0.00 0.00 57 1022.1
20181218175006 47 108 2.0 5.0 0.00 0.00 0.00 57 1022.2
20181218174505 47 113 2.0 6.0 0.00 0.00 0.00 57 1022.3
20181218174006 46 112 2.0 6.0 0.00 0.00 0.00 57 1022.5
20181218173506 46 125 2.0 6.0 0.00 0.00 0.00 57 1022.6
20181218173006 46 147 2.0 5.0 0.00 0.00 0.00 58 1022.6
20181218172505 46 126 2.0 7.0 0.00 0.00 0.00 58 1022.7
20181218172009 46 119 2.0 7.0 0.00 0.00 0.00 59 1022.7
20181218171508 46 129 2.0 5.0 0.00 0.00 0.00 61 1022.8
20181218171006 45 123 2.0 5.0 0.00 0.00 0.00 61 1022.8
20181218170505 45 116 3.0 8.0 0.00 0.00 0.00 61 1023.0
20181218170005 45 111 3.0 8.0 0.00 0.00 0.00 61 1023.1
20181218165506 45 103 3.0 8.0 0.00 0.00 0.00 63 1023.3
20181218165007 45 105 3.0 7.0 0.00 0.00 0.00 62 1023.4
20181218164505 44 120 2.0 7.0 0.00 0.00 0.00 64 1023.6
20181218164005 44 135 2.0 5.0 0.00 0.00 0.00 64 1023.4
20181218163505 44 136 3.0 8.0 0.00 0.00 0.00 65 1023.7
20181218163006 44 131 3.0 8.0 0.00 0.00 0.00 65 1023.8
20181218162505 44 127 2.0 5.0 0.00 0.00 0.00 66 1023.9
20181218162005 43 148 1.0 4.0 0.00 0.00 0.00 69 1024.0
20181218161506 43 183 1.0 4.0 0.00 0.00 0.00 69 1024.3
20181218161006 42 167 1.0 4.0 0.00 0.00 0.00 70 1024.5
20181218160506 42 136 1.0 7.0 0.00 0.00 0.00 71 1024.6
20181218160006 41 143 2.0 7.0 0.00 0.00 0.00 71 1024.7
20181218155506 41 141 2.0 5.0 0.00 0.00 0.00 71 1024.7
20181218155005 41 148 1.0 4.0 0.00 0.00 0.00 72 1024.5
20181218154505 40 162 1.0 5.0 0.00 0.00 0.00 72 1024.6
20181218154006 40 139 1.0 5.0 0.00 0.00 0.00 72 1024.6
20181218153506 40 106 0.0 2.0 0.00 0.00 0.00 74 1024.5
20181218153005 40 107 1.0 3.0 0.00 0.00 0.00 74 1024.5
20181218152506 40 115 1.0 5.0 0.00 0.00 0.00 74 1024.4
20181218152006 39 128 1.0 5.0 0.00 0.00 0.00 74 1024.4
20181218151506 39 135 1.0 5.0 0.00 0.00 0.00 74 1024.3
20181218151005 39 146 1.0 5.0 0.00 0.00 0.00 75 1024.3
20181218150506 39 141 1.0 5.0 0.00 0.00 0.00 75 1024.3
20181218150006 39 107 1.0 3.0 0.00 0.00 0.00 76 1024.2
20181218145505 38 108 1.0 4.0 0.00 0.00 0.00 77 1024.2
20181218145005 38 122 2.0 5.0 0.00 0.00 0.00 77 1024.2
20181218144506 38 122 3.0 6.0 0.00 0.00 0.00 77 1024.0
20181218144006 37 96 3.0 6.0 0.00 0.00 0.00 78 1023.9
20181218143505 36 70 2.0 5.0 0.00 0.00 0.00 80 1023.8
20181218143005 36 32 1.0 5.0 0.00 0.00 0.00 82 1023.9
20181218142506 35 2 1.0 4.0 0.00 0.00 0.00 83 1023.9
20181218142005 34 355 1.0 3.0 0.00 0.00 0.00 85 1023.9
20181218141506 33 347 0.0 2.0 0.00 0.00 0.00 86 1023.9
20181218141006 32 0 0.0 0.0 0.00 0.00 0.00 87 1023.8
20181218140505 39 0 0.0 0.0 0.00 0.00 0.00 65 1024.0
20181218140005 39 0 0.0 0.0 0.00 0.00 0.00 65 1023.9
20181218135507 39 0 0.0 0.0 0.00 0.00 0.00 65 1024.0
20181218135006 39 0 0.0 0.0 0.00 0.00 0.00 65 1023.9
20181218134505 39 0 0.0 0.0 0.00 0.00 0.00 65 1023.9
20181218134006 39 0 0.0 0.0 0.00 0.00 0.00 65 1023.8
20181218133506 39 0 0.0 0.0 0.00 0.00 0.00 65 1023.7
20181218133005 39 0 0.0 0.0 0.00 0.00 0.00 65 1023.7
20181218132506 39 0 0.0 0.0 0.00 0.00 0.00 65 1023.8
20181218132006 39 0 0.0 0.0 0.00 0.00 0.00 65 1023.7
20181218131506 39 0 0.0 0.0 0.00 0.00 0.00 65 1023.8
20181218131005 39 0 0.0 0.0 0.00 0.00 0.00 65 1023.8
20181218130505 39 0 0.0 0.0 0.00 0.00 0.00 65 1023.7
20181218130006 39 0 0.0 0.0 0.00 0.00 0.00 65 1023.6
20181218125507 39 0 0.0 0.0 0.00 0.00 0.00 65 1023.6
20181218125006 39 0 0.0 0.0 0.00 0.00 0.00 65 1023.6
20181218124507 39 0 0.0 0.0 0.00 0.00 0.00 65 1023.5
20181218124007 39 0 0.0 0.0 0.00 0.00 0.00 65 1023.5
20181218123505 39 0 0.0 0.0 0.00 0.00 0.00 65 1023.5
20181218123005 39 0 0.0 0.0 0.00 0.00 0.00 65 1023.5
20181218122507 39 0 0.0 0.0 0.00 0.00 0.00 65 1023.5
20181218122006 39 0 0.0 0.0 0.00 0.00 0.00 65 1023.5
20181218121506 39 0 0.0 0.0 0.00 0.00 0.00 65 1023.5
20181218121006 39 0 0.0 0.0 0.00 0.00 0.00 65 1023.6
20181218120507 39 0 0.0 0.0 0.00 0.00 0.00 65 1023.6
20181218120009 39 0 0.0 0.0 0.00 0.00 0.00 65 1023.5
20181218115507 39 0 0.0 0.0 0.00 0.00 0.00 65 1023.5
20181218115008 39 0 0.0 0.0 0.00 0.00 0.00 65 1023.5
20181218114507 39 0 0.0 0.0 0.00 0.00 0.00 65 1023.5
20181218114008 39 0 0.0 0.0 0.00 0.00 0.00 65 1023.6
20181218113506 39 0 0.0 0.0 0.00 0.00 0.00 65 1023.7
20181218113007 39 0 0.0 0.0 0.00 0.00 0.00 65 1023.6
20181218112506 39 0 0.0 0.0 0.00 0.00 0.00 65 1023.6
20181218112006 39 0 0.0 0.0 0.00 0.00 0.00 65 1023.6
20181218111507 39 0 0.0 0.0 0.00 0.00 0.00 65 1023.6
20181218111006 39 0 0.0 0.0 0.00 0.00 0.00 65 1023.6
20181218110506 39 0 0.0 0.0 0.00 0.00 0.00 65 1023.6
20181218110006 39 0 0.0 0.0 0.00 0.00 0.00 65 1023.7
20181218105507 39 0 0.0 0.0 0.00 0.00 0.00 65 1023.7
20181218105006 39 0 0.0 0.0 0.00 0.00 0.00 65 1023.6
20181218104507 39 0 0.0 0.0 0.00 0.00 0.00 65 1023.6
20181218104007 39 0 0.0 0.0 0.00 0.00 0.00 65 1023.7
20181218103505 39 0 0.0 0.0 0.00 0.00 0.00 65 1023.7
20181218103007 39 0 0.0 0.0 0.00 0.00 0.00 65 1023.6
20181218102505 39 0 0.0 0.0 0.00 0.00 0.00 65 1023.7
20181218102006 39 0 0.0 0.0 0.00 0.00 0.00 65 1023.7
20181218101506 39 0 0.0 0.0 0.00 0.00 0.00 65 1023.8
20181218101009 39 0 0.0 0.0 0.00 0.00 0.00 65 1023.8
20181218100507 39 0 0.0 0.0 0.00 0.00 0.00 65 1023.9
20181218100006 39 0 0.0 0.0 0.00 0.00 0.00 65 1023.9
20181218095506 39 0 0.0 0.0 0.00 0.00 0.00 65 1023.9
20181218095008 39 0 0.0 0.0 0.00 0.00 0.00 65 1023.9
20181218094506 39 0 0.0 0.0 0.00 0.00 0.00 65 1024.0
20181218094007 39 0 0.0 0.0 0.00 0.00 0.00 65 1024.0
20181218093506 39 0 0.0 0.0 0.00 0.00 0.00 65 1024.0
20181218093007 39 0 0.0 0.0 0.00 0.00 0.00 65 1024.0
20181218092506 39 0 0.0 0.0 0.00 0.00 0.00 65 1023.9
20181218092006 39 0 0.0 0.0 0.00 0.00 0.00 65 1024.0
20181218091007 39 0 0.0 0.0 0.00 0.00 0.00 65 1024.0
20181218090506 39 0 0.0 0.0 0.00 0.00 0.00 65 1023.9
20181218090006 39 0 0.0 0.0 0.00 0.00 0.00 65 1023.9
20181218085506 39 0 0.0 0.0 0.00 0.00 0.00 65 1023.9
20181218085006 39 0 0.0 0.0 0.00 0.00 0.00 65 1024.0
20181218084506 39 0 0.0 0.0 0.00 0.00 0.00 65 1024.0
20181218084007 39 0 0.0 0.0 0.00 0.00 0.00 65 1023.9
20181218083507 39 0 0.0 0.0 0.00 0.00 0.00 65 1023.9
20181218083007 39 0 0.0 0.0 0.00 0.00 0.00 65 1023.9
20181218082506 39 0 0.0 0.0 0.00 0.00 0.00 65 1023.9
20181218082007 39 0 0.0 0.0 0.00 0.00 0.00 65 1024.0
20181218081507 39 0 0.0 0.0 0.00 0.00 0.00 65 1024.0
20181218081006 39 0 0.0 0.0 0.00 0.00 0.00 65 1024.0
20181218080506 39 0 0.0 0.0 0.00 0.00 0.00 65 1024.0
20181218080006 39 0 0.0 0.0 0.00 0.00 0.00 65 1023.9
20181218075506 39 0 0.0 0.0 0.00 0.00 0.00 65 1023.8
20181218075006 39 0 0.0 0.0 0.00 0.00 0.00 65 1023.8
20181218074506 39 0 0.0 0.0 0.00 0.00 0.00 65 1023.7
20181218074006 39 0 0.0 0.0 0.00 0.00 0.00 65 1023.8
20181218073507 39 0 0.0 0.0 0.00 0.00 0.00 65 1023.8
20181218073006 39 0 0.0 0.0 0.00 0.00 0.00 65 1023.9
20181218072507 39 0 0.0 0.0 0.00 0.00 0.00 65 1023.9
20181218072006 39 0 0.0 0.0 0.00 0.00 0.00 65 1023.9
20181218071507 39 0 0.0 0.0 0.00 0.00 0.00 65 1023.9
20181218071008 39 0 0.0 0.0 0.00 0.00 0.00 65 1024.0
20181218070506 39 0 0.0 0.0 0.00 0.00 0.00 65 1024.0
20181218070006 39 0 0.0 0.0 0.00 0.00 0.00 65 1024.0
20181218065507 39 0 0.0 0.0 0.00 0.00 0.00 65 1024.0
20181218065006 39 0 0.0 0.0 0.00 0.00 0.00 65 1024.1
20181218064506 39 0 0.0 0.0 0.00 0.00 0.00 65 1024.2
20181218064007 39 0 0.0 0.0 0.00 0.00 0.00 65 1024.2
20181218063506 39 0 0.0 0.0 0.00 0.00 0.00 65 1024.2
20181218063007 39 0 0.0 0.0 0.00 0.00 0.00 65 1024.3
20181218062506 39 0 0.0 0.0 0.00 0.00 0.00 65 1024.4
20181218062006 39 0 0.0 0.0 0.00 0.00 0.00 65 1024.3
20181218061506 39 0 0.0 0.0 0.00 0.00 0.00 65 1024.3
20181218061006 39 0 0.0 0.0 0.00 0.00 0.00 65 1024.3
20181218060507 39 0 0.0 0.0 0.00 0.00 0.00 65 1024.4
20181218060010 39 0 0.0 0.0 0.00 0.00 0.00 65 1024.4
20181218055506 39 0 0.0 0.0 0.00 0.00 0.00 65 1024.5
20181218055007 39 0 0.0 0.0 0.00 0.00 0.00 65 1024.6
20181218054506 39 0 0.0 0.0 0.00 0.00 0.00 65 1024.6
20181218054007 39 0 0.0 0.0 0.00 0.00 0.00 65 1024.6
20181218053506 39 0 0.0 0.0 0.00 0.00 0.00 65 1024.6
20181218053006 39 0 0.0 0.0 0.00 0.00 0.00 65 1024.7
20181218052507 39 0 0.0 0.0 0.00 0.00 0.00 65 1024.6
20181218052006 39 0 0.0 0.0 0.00 0.00 0.00 65 1024.6
20181218051506 39 0 0.0 0.0 0.00 0.00 0.00 65 1024.6
20181218051006 39 0 0.0 0.0 0.00 0.00 0.00 65 1024.6
20181218050505 39 0 0.0 0.0 0.00 0.00 0.00 65 1024.7
20181218050006 39 0 0.0 0.0 0.00 0.00 0.00 65 1024.6
20181218045506 39 0 0.0 0.0 0.00 0.00 0.00 65 1024.6
20181218045007 39 0 0.0 0.0 0.00 0.00 0.00 65 1024.6
20181218044506 39 0 0.0 0.0 0.00 0.00 0.00 65 1024.5
20181218044007 39 0 0.0 0.0 0.00 0.00 0.00 65 1024.6
20181218043505 39 0 0.0 0.0 0.00 0.00 0.00 65 1024.6
20181218043006 39 0 0.0 0.0 0.00 0.00 0.00 65 1024.6
20181218042507 39 0 0.0 0.0 0.00 0.00 0.00 65 1024.6
20181218042006 39 0 0.0 0.0 0.00 0.00 0.00 65 1024.6
20181218041507 39 0 0.0 0.0 0.00 0.00 0.00 65 1024.6
20181218041007 39 0 0.0 0.0 0.00 0.00 0.00 65 1024.6
20181218040526 39 0 0.0 0.0 0.00 0.00 0.00 65 1024.7
20181218040027 39 0 0.0 0.0 0.00 0.00 0.00 65 1024.8
20181218035506 39 0 0.0 0.0 0.00 0.00 0.00 65 1024.8
20181218035006 39 0 0.0 0.0 0.00 0.00 0.00 65 1024.8
20181218034505 39 0 0.0 0.0 0.00 0.00 0.00 65 1024.7
20181218034006 39 0 0.0 0.0 0.00 0.00 0.00 65 1024.7
20181218033505 39 0 0.0 0.0 0.00 0.00 0.00 65 1024.7
20181218033006 39 0 0.0 0.0 0.00 0.00 0.00 65 1024.7
20181218032506 39 0 0.0 0.0 0.00 0.00 0.00 65 1024.6
20181218032006 39 0 0.0 0.0 0.00 0.00 0.00 65 1024.6
20181218031506 39 0 0.0 0.0 0.00 0.00 0.00 65 1024.6
20181218031005 39 0 0.0 0.0 0.00 0.00 0.00 65 1024.6
20181218030505 39 0 0.0 0.0 0.00 0.00 0.00 65 1024.6
20181218030006 39 0 0.0 0.0 0.00 0.00 0.00 65 1024.6
20181218025505 39 0 0.0 0.0 0.00 0.00 0.00 65 1024.7
20181218025006 39 0 0.0 0.0 0.00 0.00 0.00 65 1024.7
20181218024506 39 0 0.0 0.0 0.00 0.00 0.00 65 1024.7
20181218024007 39 0 0.0 0.0 0.00 0.00 0.00 65 1024.7
20181218023506 39 0 0.0 0.0 0.00 0.00 0.00 65 1024.6
20181218023005 39 0 0.0 0.0 0.00 0.00 0.00 65 1024.7
20181218022505 39 0 0.0 0.0 0.00 0.00 0.00 65 1024.7
20181218022006 39 0 0.0 0.0 0.00 0.00 0.00 65 1024.7
20181218021506 39 0 0.0 0.0 0.00 0.00 0.00 65 1024.8
20181218021005 39 0 0.0 0.0 0.00 0.00 0.00 65 1024.8
20181218020505 39 0 0.0 0.0 0.00 0.00 0.00 65 1024.7
20181218020008 39 0 0.0 0.0 0.00 0.00 0.00 65 1024.7
20181218015506 39 0 0.0 0.0 0.00 0.00 0.00 65 1024.7
20181218015006 39 0 0.0 0.0 0.00 0.00 0.00 65 1024.8
20181218014505 39 0 0.0 0.0 0.00 0.00 0.00 65 1024.8
20181218014005 39 0 0.0 0.0 0.00 0.00 0.00 65 1024.9
20181218013506 39 0 0.0 0.0 0.00 0.00 0.00 65 1025.0
20181218013005 39 0 0.0 0.0 0.00 0.00 0.00 65 1025.0
20181218012505 39 0 0.0 0.0 0.00 0.00 0.00 65 1025.1
20181218012005 39 0 0.0 0.0 0.00 0.00 0.00 65 1025.2
20181218011505 39 0 0.0 0.0 0.00 0.00 0.00 65 1025.2
20181218011005 39 0 0.0 0.0 0.00 0.00 0.00 65 1025.2
20181218010506 39 0 0.0 0.0 0.00 0.00 0.00 65 1025.2
20181218010005 39 0 0.0 0.0 0.00 0.00 0.00 65 1025.2
20181218005505 39 0 0.0 0.0 0.00 0.00 0.00 65 1025.2
20181218005006 39 0 0.0 0.0 0.00 0.00 0.00 65 1025.0
20181218004505 39 0 0.0 0.0 0.00 0.00 0.00 65 1025.0
20181218004005 39 0 0.0 0.0 0.00 0.00 0.00 65 1025.0
20181218003506 39 0 0.0 0.0 0.00 0.00 0.00 65 1025.1
20181218003006 39 0 0.0 0.0 0.00 0.00 0.00 65 1024.9
20181218002506 39 0 0.0 0.0 0.00 0.00 0.00 65 1025.0
20181218002005 39 0 0.0 0.0 0.00 0.00 0.00 65 1024.9
20181218001506 39 0 0.0 0.0 0.00 0.00 0.00 65 1024.8
20181218001005 39 0 0.0 0.0 0.00 0.00 0.00 64 1024.8
20181218000505 39 0 0.0 0.0 0.00 0.00 0.00 64 1024.8
20181218000006 39 0 0.0 0.0 0.00 0.00 0.00 63 1024.9
20181217235505 40 0 0.0 0.0 0.00 0.00 0.00 63 1024.8
20181217235005 40 0 0.0 0.0 0.00 0.00 0.00 62 1024.7
20181217234505 40 0 0.0 0.0 0.00 0.00 0.00 61 1024.7
20181217234005 41 0 0.0 0.0 0.00 0.00 0.00 60 1024.6
20181217233505 41 0 0.0 0.0 0.00 0.00 0.00 60 1024.6
20181217233006 41 0 0.0 0.0 0.00 0.00 0.00 59 1024.6
20181217232505 42 0 0.0 0.0 0.00 0.00 0.00 58 1024.5
20181217232006 42 0 0.0 0.0 0.00 0.00 0.00 58 1024.6
20181217231506 43 0 0.0 0.0 0.00 0.00 0.00 57 1024.6
20181217231005 43 0 0.0 0.0 0.00 0.00 0.00 57 1024.5
20181217230505 44 0 0.0 0.0 0.00 0.00 0.00 55 1024.5
20181217230006 45 0 0.0 0.0 0.00 0.00 0.00 54 1024.6
20181217225505 45 0 0.0 0.0 0.00 0.00 0.00 52 1024.5
20181217225005 46 0 0.0 0.0 0.00 0.00 0.00 51 1024.5
20181217224506 47 0 0.0 0.0 0.00 0.00 0.00 50 1024.5
20181217224005 48 0 0.0 0.0 0.00 0.00 0.00 49 1024.5
20181217223506 48 0 0.0 0.0 0.00 0.00 0.00 47 1024.5
20181217223006 49 0 0.0 0.0 0.00 0.00 0.00 46 1024.6
20181217222505 49 0 0.0 0.0 0.00 0.00 0.00 45 1024.6
20181217222005 50 343 0.0 1.0 0.00 0.00 0.00 44 1024.5
20181217221505 50 343 0.0 1.0 0.00 0.00 0.00 44 1024.5
20181217221005 50 0 0.0 0.0 0.00 0.00 0.00 43 1024.5
20181217220505 50 343 0.0 1.0 0.00 0.00 0.00 42 1024.5
20181217220006 51 343 0.0 1.0 0.00 0.00 0.00 42 1024.5